Overview Statistics Trail Chart Weather Telemetry Raw packets
 

This is the latest recevied weather packets stored in our database for station/object YO6KXQ-10. If no packets are shown the sender has not sent any weather packets the latest 10 day(s).

<< 10 11 12 13 14 15 16 >>
Time Temp. Humidity Pressure Rain* Wind** Luminosity Snow
1777483115 19.44° C 53% 1022.2 hPa - - - -
1777482095 19.44° C 52% 1021.7 hPa - - - -
1777481074 19.44° C 52% 1021.6 hPa - - - -
1777480054 20° C 51% 1021.3 hPa - - - -
1777479034 20° C 51% 1021.3 hPa - - - -
1777478014 20.56° C 50% 1021.3 hPa - - - -
1777476994 20.56° C 49% 1020.8 hPa - - - -
1777475974 21.11° C 48% 1020.3 hPa - - - -
1777474953 21.11° C 48% 1020.4 hPa - - - -
1777473932 21.11° C 48% 1020.4 hPa - - - -
1777472912 21.11° C 47% 1020.3 hPa - - - -
1777471892 21.11° C 47% 1020.3 hPa - - - -
1777470872 21.11° C 46% 1020.4 hPa - - - -
1777469852 20.56° C 45% 1020.6 hPa - - - -
1777468831 20.56° C 46% 1020.6 hPa - - - -
1777467811 20° C 49% 1020.7 hPa - - - -
1777466791 20° C 50% 1020.8 hPa - - - -
1777465771 19.44° C 48% 1021 hPa - - - -
1777464751 18.89° C 45% 1021.1 hPa - - - -
1777463731 18.89° C 55% 1021.3 hPa - - - -
1777462710 18.89° C 55% 1021.3 hPa - - - -
1777461690 18.89° C 55% 1021.5 hPa - - - -
1777460670 18.89° C 56% 1021.6 hPa - - - -
1777459650 18.89° C 56% 1021.7 hPa - - - -
1777458630 18.89° C 56% 1021.9 hPa - - - -

* Rain since midnight (hover to see other rain measurements)
** Current wind speed in m/s (hover to see current wind gust speed)